This is the latest recevied weather packets stored in our database for station/object K1BES. If no packets are shown the sender has not sent any weather packets the latest 10 day(s).
| Time | Temp. | Humidity | Pressure | Rain* | Wind** | Luminosity | Snow |
|---|---|---|---|---|---|---|---|
| 1787789108 | 29.44° C | 75% | 1017.5 hPa | 0 mm | - | 1 W/m² | - |
| 1787788806 | 29.44° C | 75% | 1017.7 hPa | 0 mm | - | 2 W/m² | - |
| 1787788500 | 30° C | 74% | 1017.6 hPa | 0 mm | - | 4 W/m² | - |
| 1787788200 | 30° C | 74% | 1017.1 hPa | 0 mm | - | 10 W/m² | - |
| 1787787895 | 30° C | 74% | 1017.4 hPa | 0 mm | - | 15 W/m² | - |
| 1787787590 | 30° C | 73% | 1017.2 hPa | 0 mm | - | 19 W/m² | - |
| 1787787285 | 30.56° C | 73% | 1017.3 hPa | 0 mm | - | 27 W/m² | - |
| 1787786983 | 30.56° C | 72% | 1017.1 hPa | 0 mm | - | 34 W/m² | - |
| 1787786679 | 30.56° C | 72% | 1017.3 hPa | 0 mm | - | 40 W/m² | - |
| 1787786378 | 30.56° C | 70% | 1017.3 hPa | 0 mm | - | 44 W/m² | - |
| 1787786074 | 30.56° C | 69% | 1017.3 hPa | 0 mm | - | 48 W/m² | - |
| 1787785770 | 31.11° C | 70% | 1017.1 hPa | 0 mm | - | 50 W/m² | - |
| 1787785466 | 31.11° C | 70% | 1017.3 hPa | 0 mm | - | 52 W/m² | - |
| 1787785164 | 31.11° C | 69% | 1017.2 hPa | 0 mm | - | 52 W/m² | - |
| 1787784860 | 31.11° C | 70% | 1017.4 hPa | 0 mm | - | 52 W/m² | - |
| 1787784559 | 31.11° C | 69% | 1017.3 hPa | 0 mm | - | 52 W/m² | - |
| 1787784259 | 31.11° C | 69% | 1017.3 hPa | 0 mm | - | 52 W/m² | - |
| 1787783954 | 31.11° C | 69% | 1017.1 hPa | 0 mm | - | 53 W/m² | - |
| 1787783650 | 31.67° C | 69% | 1017.2 hPa | 0 mm | - | 54 W/m² | - |
| 1787783349 | 31.67° C | 70% | 1017.1 hPa | 0 mm | - | 62 W/m² | - |
| 1787783045 | 31.67° C | 69% | 1017.1 hPa | 0 mm | - | 54 W/m² | - |
| 1787782744 | 31.67° C | 69% | 1017.2 hPa | 0 mm | - | 52 W/m² | - |
| 1787782440 | 31.67° C | 68% | 1017.1 hPa | 0 mm | - | 54 W/m² | - |
| 1787782135 | 31.67° C | 67% | 1017 hPa | 0 mm | - | 51 W/m² | - |
| 1787781835 | 31.67° C | 67% | 1017 hPa | 0 mm | - | 51 W/m² | - |
* Rain latest hour (hover to see other rain measurements)
** Current wind speed in m/s (hover to see current wind gust speed)